Location: Ku?niki
(51.4449°N, 17.8974°E)
Time: 16:20:20
(UTC+00:00)

XW-2A - Pass Details

Date: 10 July 2022
Orbit: 396 x 406 km, 97.2° (Epoch: 10 August)

Event Time Altitude Azimuth Distance (km) Brightness Sun altitude
Exits shadow 19:51:46 - 177° (S) 2,012 ? -6.3°
Reaches altitude 10° 19:53:06 10° 181° (S) 1,441 ? -6.4°
Maximum altitude 19:56:07 52° 260° (W) 505 ? -6.7°
Drops below altitude 10° 19:59:09 10° 338° (NNW) 1,458 ? -7.0°
Sets 20:01:11 0° 343° (NNW) 2,324 ? -7.2°
